Weather History for Oxford, CT

Change the Weather History Date:

Sunday, September 23, 2012

  Actual Average Record
Temperature  
Mean Temperature 54 °F -  
Max Temperature 62 °F 65 °F 80 °F (2005)
Min Temperature 46 °F 49 °F 39 °F (2014)
Degree Days  
Heating Degree Days 11    
Growing Degree Days 4 (Base 50)    
Moisture  
Dew Point 48 °F    
Average Humidity 79    
Maximum Humidity 100    
Minimum Humidity 45    
Precipitation  
Precipitation 0.00 in - - ()
Sea Level Pressure  
Sea Level Pressure 30.01 in    
Wind  
Wind Speed 3 mph (NNW)    
Max Wind Speed 12 mph    
Max Gust Speed 23 mph    
Visibility 8 miles    
Events      
Averages and records for this station are not official NWS values.
T = Trace of Precipitation, MM = Missing Value Source: NWS Daily Summary

Daily Weather History Graph

Daily Weather History Graph

Search for Another Location

Airport:

Trip Planner

Search our weather history database for the weather conditions in past years. The results will help you decide how hot, cold, wet, or windy it might be!

Date:

Astronomy

Sep. 23, 2012 Rise Set
Actual Time 6:41 AM EDT 6:47 PM EDT
Civil Twilight 6:13 AM EDT 7:14 PM EDT
Nautical Twilight 5:41 AM EDT 7:47 PM EDT
Astronomical Twilight 5:08 AM EDT 8:19 PM EDT
Moon 2:50 PM EDT (9/23) No Moon Set
Length of Visible Light 13h 00m
Length of Day
12h 05m
First Quarter, 60% of the Moon is Illuminated
Sep 23
First Quarter
Sep 29
Full
Oct 8
Last Quarter
Oct 15
New
Oct 21
First Quarter

Hourly Weather History & Observations

Time (EDT) Temp. Windchill Dew Point Humidity Pressure Visibility Wind Dir Wind Speed Gust Speed Precip Events Conditions
12:55 AM 59.0 °F - 55.4 °F 88% 29.88 in 6.0 mi WSW 3.5 mph - N/A   Overcast
1:15 AM 59.0 °F - 55.4 °F 88% 29.88 in 7.0 mi West 3.5 mph - N/A   Overcast
1:35 AM 59.0 °F - 55.4 °F 88% 29.89 in 6.0 mi WNW 4.6 mph - N/A   Overcast
1:55 AM 57.2 °F - 55.4 °F 94% 29.89 in 7.0 mi West 4.6 mph - N/A   Overcast
2:15 AM 57.2 °F - 55.4 °F 94% 29.90 in 7.0 mi NW 3.5 mph - N/A   Overcast
2:35 AM 57.2 °F - 55.4 °F 94% 29.89 in 10.0 mi NNW 3.5 mph - N/A   Partly Cloudy
2:55 AM 57.2 °F - 53.6 °F 88% 29.90 in 9.0 mi Calm Calm - N/A   Scattered Clouds
3:15 AM 57.2 °F - 53.6 °F 88% 29.90 in 5.0 mi Calm Calm - N/A   Overcast
3:35 AM 57.2 °F - 53.6 °F 88% 29.90 in 2.0 mi Calm Calm - N/A   Mostly Cloudy
3:55 AM 57.2 °F - 53.6 °F 88% 29.91 in 9.0 mi Calm Calm - N/A   Mostly Cloudy
4:15 AM 55.4 °F - 53.6 °F 94% 29.91 in 1.8 mi Calm Calm - N/A   Overcast
4:35 AM 55.4 °F - 53.6 °F 94% 29.91 in 0.5 mi Calm Calm - N/A   Unknown
5:15 AM 55.4 °F - 53.6 °F 94% 29.94 in 1.0 mi Calm Calm - N/A   Overcast
5:35 AM 55.4 °F - 51.8 °F 88% 29.94 in 0.5 mi Calm Calm - N/A   Overcast
5:45 AM 55.4 °F - 53.6 °F 94% 29.95 in 1.0 mi Calm Calm - N/A   Scattered Clouds
6:20 AM 53.6 °F - 51.8 °F 94% 29.97 in 0.8 mi Calm Calm - N/A   Mostly Cloudy
6:35 AM 53.6 °F - 53.6 °F 100% 29.98 in 5.0 mi North 6.9 mph - N/A   Mostly Cloudy
6:55 AM 53.6 °F - 48.2 °F 82% 29.98 in 10.0 mi North 11.5 mph - N/A   Scattered Clouds
7:45 AM 53.6 °F - 48.2 °F 82% 30.01 in 10.0 mi NNW 9.2 mph 17.3 mph N/A   Scattered Clouds
8:45 AM 53.6 °F - 44.6 °F 72% 30.03 in 10.0 mi North 11.5 mph - N/A   Clear
9:45 AM 55.4 °F - 44.6 °F 67% 30.05 in 10.0 mi North 11.5 mph 23.0 mph N/A   Clear
10:45 AM 59.0 °F - 44.6 °F 59% 30.06 in 10.0 mi North 11.5 mph 19.6 mph N/A   Clear
11:45 AM 60.8 °F - 44.6 °F 55% 30.06 in 10.0 mi NW 8.1 mph - N/A   Partly Cloudy
12:45 PM 60.8 °F - 39.2 °F 45% 30.06 in 10.0 mi NNW 11.5 mph 17.3 mph N/A   Partly Cloudy
1:45 PM 62.6 °F - 42.8 °F 48% 30.05 in 10.0 mi North 9.2 mph 19.6 mph N/A   Scattered Clouds
2:45 PM 62.6 °F - 42.8 °F 48% 30.04 in 10.0 mi NW 6.9 mph 17.3 mph N/A   Scattered Clouds
3:45 PM 62.6 °F - 42.8 °F 48% 30.05 in 10.0 mi NW 6.9 mph - N/A   Scattered Clouds
4:45 PM 62.6 °F - 41.0 °F 45% 30.05 in 10.0 mi NW 4.6 mph - N/A   Scattered Clouds
5:45 PM 62.6 °F - 42.8 °F 48% 30.06 in 10.0 mi NW 4.6 mph - N/A   Partly Cloudy
6:45 PM 59.0 °F - 42.8 °F 55% 30.08 in 10.0 mi Calm Calm - N/A   Partly Cloudy
7:45 PM 51.8 °F - 44.6 °F 76% 30.10 in 10.0 mi Calm Calm - N/A   Clear
8:55 PM 48.2 °F - 44.6 °F 87% 30.11 in 10.0 mi Calm Calm - N/A   Clear
9:15 PM 46.4 °F - 42.8 °F 87% 30.12 in 10.0 mi Calm Calm - N/A   Clear
9:35 PM 46.4 °F - 42.8 °F 87% 30.12 in 10.0 mi Calm Calm - N/A   Clear
9:55 PM 46.4 °F - 42.8 °F 87% 30.12 in 10.0 mi Calm Calm - N/A   Clear
10:15 PM 46.4 °F - 41.0 °F 81% 30.12 in 10.0 mi Calm Calm - N/A   Clear
10:35 PM 46.4 °F 45.2 °F 42.8 °F 87% 30.13 in 10.0 mi North 3.5 mph - N/A   Clear
10:55 PM 46.4 °F - 42.8 °F 87% 30.13 in 10.0 mi Calm Calm - N/A   Clear
11:15 PM 46.4 °F - 41.0 °F 81% 30.13 in 10.0 mi Calm Calm - N/A   Clear
11:55 PM 46.4 °F 45.2 °F 41.0 °F 81% 30.13 in 10.0 mi North 3.5 mph - N/A   Clear